Location: Saratoga Springs
(43.0831°N, 73.7850°W)
Time: 22:45:02
(UTC-04:00)

Altair - Visible Passes

Search period start: 21 April 2024 00:00
Search period end: 01 May 2024 00:00
Orbit: 1502 x 1682 km, 47.2° (Epoch: 21 April)

Date Brightness Start Highest point End Pass type
(mag) Time Alt. Az. Time Alt. Az. Time Alt. Az.
21 Apr 7.8 01:38:25 10° WNW 01:45:22 48° W 01:45:22 48° W visible
21 Apr 7.8 21:02:12 10° W 21:12:18 76° NNW 21:22:01 10° ENE visible
21 Apr 7.6 23:07:56 10° WNW 23:17:52 74° N 23:22:59 32° E visible
22 Apr 7.6 01:13:09 10° WNW 01:20:58 56° WSW 01:20:58 56° WSW visible
22 Apr 7.8 20:36:53 10° WSW 20:47:01 78° NNW 20:56:47 10° ENE visible
22 Apr 7.6 22:42:38 10° WNW 22:52:35 73° N 22:58:38 26° E visible
23 Apr 7.4 00:47:52 10° WNW 00:56:36 65° WSW 00:56:36 65° WSW visible
23 Apr 9.2 02:53:58 10° W 02:54:36 12° W 02:54:36 12° W visible
23 Apr 7.8 20:11:35 10° WSW 20:21:44 80° NNW 20:31:33 10° ENE visible
23 Apr 7.7 22:17:19 10° WNW 22:27:19 72° N 22:34:20 21° E visible
24 Apr 7.3 00:22:36 10° WNW 00:32:19 72° SSW 00:32:19 72° SSW visible
24 Apr 9.0 02:28:29 10° WNW 02:30:18 15° W 02:30:18 15° W visible
24 Apr 7.7 21:52:00 10° WNW 22:02:01 71° N 22:10:05 16° E visible
24 Apr 7.3 23:57:20 10° WNW 00:07:09 76° SSW 00:08:04 71° SSE visible
25 Apr 8.9 02:03:02 10° WNW 02:06:03 19° W 02:06:03 19° W visible
25 Apr 7.8 21:26:42 10° W 21:36:44 70° N 21:45:52 12° E visible
25 Apr 7.4 23:32:03 10° WNW 23:41:56 80° SSW 23:43:51 62° SE visible
26 Apr 8.7 01:37:38 10° WNW 01:41:50 24° W 01:41:50 24° W visible
26 Apr 7.8 21:01:23 10° W 21:11:26 70° N 21:21:07 10° E visible
26 Apr 7.4 23:06:47 10° WNW 23:16:43 84° SSW 23:19:40 52° SE visible
27 Apr 8.5 01:12:16 10° WNW 01:17:39 29° WSW 01:17:39 29° WSW visible
27 Apr 7.9 20:36:03 10° W 20:46:08 70° N 20:55:52 10° E visible
27 Apr 7.4 22:41:30 10° WNW 22:51:30 87° SSW 22:55:31 42° ESE visible
28 Apr 8.3 00:46:54 10° WNW 00:53:30 34° WSW 00:53:30 34° WSW visible
28 Apr 7.9 20:10:43 10° W 20:20:49 70° N 20:30:36 10° E visible
28 Apr 7.5 22:16:14 10° WNW 22:26:16 90° NE 22:31:23 33° ESE visible
29 Apr 8.0 00:21:33 10° WNW 00:29:23 39° WSW 00:29:23 39° WSW visible
29 Apr 7.5 21:50:57 10° WNW 22:01:01 87° NNE 22:07:17 26° ESE visible
29 Apr 7.9 23:56:14 10° WNW 00:05:16 44° SW 00:05:16 44° SW visible
30 Apr 7.6 21:25:40 10° WNW 21:35:46 84° NNE 21:43:12 20° ESE visible
30 Apr 7.8 23:30:54 10° WNW 23:40:08 47° SW 23:41:12 46° SSW visible
